TimeAKDT,TemperatureF,Dew PointF,Humidity,Sea Level PressureIn,VisibilityMPH,Wind Direction,Wind SpeedMPH,Gust SpeedMPH,PrecipitationIn,Events,Conditions,WindDirDegrees,DateUTC
12:53 AM,18.0,12.0,78,30.30,10.0,Calm,Calm,-,N/A,,Clear,0,2012-10-22 08:53:00
1:53 AM,19.0,10.9,71,30.29,10.0,Calm,Calm,-,N/A,,Clear,0,2012-10-22 09:53:00
2:53 AM,18.0,10.9,74,30.28,10.0,Calm,Calm,-,N/A,,Clear,0,2012-10-22 10:53:00
3:53 AM,18.0,10.9,74,30.27,10.0,NE,4.6,-,N/A,,Clear,50,2012-10-22 11:53:00
4:53 AM,16.0,9.0,74,30.27,10.0,Calm,Calm,-,N/A,,Clear,0,2012-10-22 12:53:00
5:53 AM,15.1,8.1,74,30.28,10.0,Calm,Calm,-,N/A,,Clear,0,2012-10-22 13:53:00
6:53 AM,12.9,7.0,77,30.28,10.0,Calm,Calm,-,N/A,,Clear,0,2012-10-22 14:53:00
7:53 AM,14.0,8.1,77,30.29,10.0,Calm,Calm,-,N/A,,Clear,0,2012-10-22 15:53:00
8:53 AM,12.9,8.1,81,30.29,10.0,Calm,Calm,-,N/A,,Clear,0,2012-10-22 16:53:00
9:53 AM,14.0,9.0,80,30.28,10.0,Calm,Calm,-,N/A,,Clear,0,2012-10-22 17:53:00
10:53 AM,19.0,12.9,77,30.28,10.0,Calm,Calm,-,N/A,,Clear,0,2012-10-22 18:53:00
11:53 AM,21.9,12.9,68,30.28,10.0,Calm,Calm,-,N/A,,Clear,0,2012-10-22 19:53:00
12:53 PM,25.0,12.0,58,30.28,10.0,Calm,Calm,-,N/A,,Clear,0,2012-10-22 20:53:00
1:53 PM,28.0,10.0,47,30.27,10.0,South,3.5,-,N/A,,Clear,180,2012-10-22 21:53:00
2:53 PM,28.0,10.9,49,30.26,10.0,South,4.6,-,N/A,,Clear,170,2012-10-22 22:53:00
3:53 PM,28.0,10.0,47,30.25,10.0,Calm,Calm,-,N/A,,Clear,0,2012-10-22 23:53:00
4:53 PM,28.0,10.9,49,30.25,10.0,SSE,4.6,-,N/A,,Clear,150,2012-10-23 00:53:00
5:53 PM,25.0,12.0,58,30.25,10.0,SSE,3.5,-,N/A,,Clear,150,2012-10-23 01:53:00
6:53 PM,23.0,12.0,63,30.25,10.0,Calm,Calm,-,N/A,,Clear,0,2012-10-23 02:53:00
8:53 PM,19.0,10.0,68,30.25,10.0,Calm,Calm,-,N/A,,Clear,0,2012-10-23 04:53:00
9:53 PM,16.0,8.1,71,30.26,10.0,Calm,Calm,-,N/A,,Clear,0,2012-10-23 05:53:00
10:53 PM,16.0,8.1,71,30.25,10.0,Calm,Calm,-,N/A,,Clear,0,2012-10-23 06:53:00
11:53 PM,15.1,9.0,77,30.26,10.0,North,3.5,-,N/A,,Clear,360,2012-10-23 07:53:00